Daviess Cnty AP, Washington,, IN

10:56 AM EST on November 21, 2019 (GMT -0500)
Daviess County

Weather History for KDCY - September, 2019

Change the Weather History Date:

Friday, September 13, 2019

  Actual Average (KLWV) Record (KLWV)
Temperature  
Mean Temperature 78 °F 71 °F  
Max Temperature 89 °F 83 °F 96 °F (1991)
Min Temperature 66 °F 58 °F 46 °F (2014)
Degree Days  
Heating Degree Days 0 0  
Month to date heating degree days 0  
Since 1 July heating degree days 1  
Cooling Degree Days 12 6  
Month to date cooling degree days 101  
Year to date cooling degree days 1284  
Growing Degree Days 28 (Base 50)    
Moisture  
Dew Point 68 °F    
Average Humidity 73    
Maximum Humidity 100    
Minimum Humidity 43    
Precipitation  
Precipitation 0.00 in 0.14 in 0.32 in (1977)
Month to date precipitation 1.43  
Year to date precipitation 30.78  
Sea Level Pressure  
Sea Level Pressure 30.11 in    
Wind  
Wind Speed 6 mph (WSW)    
Max Wind Speed 16 mph    
Max Gust Speed 20 mph    
Visibility 10 miles    
Events      
T = Trace of Precipitation, MM = Missing Value Source: NWS Daily Summary

Daily Weather History Graph

Daily Weather History Graph

Search for Another Location

Airport or City:

Astronomy

Sep. 13, 2019 Rise Set
Actual Time 7:28 AM EDT 8:00 PM EDT
Civil Twilight 7:01 AM EDT 8:26 PM EDT
Nautical Twilight 6:29 AM EDT 8:58 PM EDT
Astronomical Twilight 5:57 AM EDT 9:30 PM EDT
Moon 8:12 PM EDT (9/13) 6:45 AM EDT (9/13)
Length of Visible Light 13h 25m
Length of Day
12h 32m
Full, 100% of the Moon is Illuminated
Sep 13
Full
Sep 14
Full
Sep 21
Last Quarter
Sep 28
New
Oct 5
First Quarter

Hourly Weather History & Observations

Time (EDT) Temp. Heat Index Dew Point Humidity Pressure Visibility Wind Dir Wind Speed Gust Speed Precip Events Conditions
12:15 AM 72.5 °F - 72.3 °F 99% 30.11 in 10.0 mi South 5.8 mph - N/A   Clear
12:35 AM 73.4 °F - 72.9 °F 98% 30.11 in 10.0 mi South 4.6 mph - N/A   Clear
12:55 AM 73.4 °F - 72.7 °F 98% 30.10 in 10.0 mi South 5.8 mph - N/A   Clear
1:15 AM 73.6 °F - 72.5 °F 96% 30.10 in 10.0 mi South 5.8 mph - N/A   Clear
1:35 AM 73.8 °F - 72.9 °F 97% 30.10 in 10.0 mi SSE 5.8 mph - N/A   Clear
1:55 AM 73.0 °F - 72.7 °F 99% 30.10 in 10.0 mi South 3.5 mph - N/A   Clear
2:15 AM 72.3 °F - 72.0 °F 99% 30.10 in 10.0 mi SSE 5.8 mph - N/A   Clear
2:35 AM 72.5 °F - 72.1 °F 99% 30.10 in 10.0 mi South 5.8 mph - N/A   Clear
2:55 AM 72.5 °F - 72.1 °F 99% 30.10 in 10.0 mi SSE 5.8 mph - N/A   Clear
3:15 AM 72.5 °F - 72.0 °F 98% 30.10 in 10.0 mi South 3.5 mph - N/A   Clear
3:35 AM 71.6 °F - 71.4 °F 99% 30.10 in 10.0 mi South 5.8 mph - N/A   Clear
3:55 AM 70.5 °F - 70.2 °F 99% 30.09 in 10.0 mi Calm Calm - N/A   Clear
4:15 AM 70.7 °F - 70.5 °F 99% 30.10 in 10.0 mi Calm Calm - N/A   Clear
4:35 AM 71.6 °F - 71.1 °F 98% 30.09 in 10.0 mi Calm Calm - N/A   Clear
4:55 AM 70.5 °F - 70.3 °F 99% 30.08 in 10.0 mi Calm Calm - N/A   Clear
5:15 AM 70.7 °F - 70.5 °F 99% 30.08 in 10.0 mi South 3.5 mph - N/A   Clear
5:35 AM 70.0 °F - 69.8 °F 99% 30.08 in 10.0 mi Calm Calm - N/A   Clear
5:55 AM 69.8 °F - 69.8 °F 100% 30.08 in 10.0 mi Calm Calm - N/A   Clear
6:15 AM 70.2 °F - 70.0 °F 99% 30.08 in 10.0 mi South 3.5 mph - N/A   Clear
6:35 AM 70.0 °F - 69.8 °F 99% 30.08 in 10.0 mi SSW 4.6 mph - N/A   Clear
6:55 AM 72.5 °F - 70.3 °F 93% 30.08 in 10.0 mi South 5.8 mph - N/A   Clear
7:15 AM 70.9 °F - 70.7 °F 99% 30.09 in 10.0 mi SSW 3.5 mph - N/A   Clear
7:55 AM 72.5 °F - 70.7 °F 94% 30.10 in 10.0 mi SSW 3.5 mph - N/A   Clear
8:15 AM 74.3 °F - 68.2 °F 81% 30.11 in 10.0 mi South 3.5 mph - N/A   Clear
8:35 AM 74.1 °F - 69.1 °F 84% 30.11 in 10.0 mi South 3.5 mph - N/A   Clear
8:55 AM 76.1 °F - 68.9 °F 78% 30.12 in 10.0 mi SSW 5.8 mph - N/A   Clear
9:15 AM 78.3 °F - 68.9 °F 73% 30.12 in 10.0 mi SW 9.2 mph - N/A   Clear
9:35 AM 79.7 °F - 68.9 °F 69% 30.12 in 10.0 mi SW 6.9 mph - N/A   Clear
9:55 AM 81.3 °F 84.6 °F 69.3 °F 67% 30.12 in 10.0 mi SW 11.5 mph 17.3 mph N/A   Clear
10:15 AM 81.7 °F 85.2 °F 69.6 °F 67% 30.12 in 10.0 mi WSW 9.2 mph - N/A   Clear
10:35 AM 82.6 °F 86.4 °F 69.6 °F 65% 30.12 in 10.0 mi WSW 8.1 mph - N/A   Clear
10:55 AM 83.8 °F 88.3 °F 70.3 °F 64% 30.12 in 10.0 mi SW 8.1 mph - N/A   Clear
11:15 AM 84.6 °F 89.1 °F 70.3 °F 62% 30.12 in 10.0 mi SW 9.2 mph - N/A   Clear
11:35 AM 85.1 °F 90.1 °F 70.9 °F 62% 30.12 in 10.0 mi SW 11.5 mph - N/A   Clear
11:55 AM 86.2 °F 91.4 °F 71.1 °F 60% 30.12 in 10.0 mi SW 11.5 mph - N/A   Clear
12:15 PM 86.9 °F 92.5 °F 71.2 °F 59% 30.12 in 10.0 mi WSW 12.7 mph 18.4 mph N/A   Clear
12:30 PM 86.0 °F 91.8 °F 71.4 °F 62% 30.12 in 10.0 mi WSW 10.4 mph 16.1 mph N/A   Clear
12:55 PM 87.1 °F 92.8 °F 71.4 °F 59% 30.12 in 10.0 mi West 11.5 mph - N/A   Clear
1:15 PM 87.6 °F 92.3 °F 69.6 °F 55% 30.12 in 10.0 mi WSW 16.1 mph 19.6 mph N/A   Clear
1:35 PM 88.3 °F 93.2 °F 69.6 °F 54% 30.12 in 10.0 mi WSW 12.7 mph - N/A   Clear
1:55 PM 88.0 °F 92.5 °F 69.4 °F 54% 30.12 in 10.0 mi WSW 11.5 mph - N/A   Clear
2:15 PM 88.0 °F 93.4 °F 70.7 °F 56% 30.12 in 10.0 mi West 11.5 mph 16.1 mph N/A   Clear
2:35 PM 88.0 °F 93.4 °F 70.3 °F 56% 30.11 in 10.0 mi West 9.2 mph 17.3 mph N/A   Scattered Clouds
2:55 PM 88.9 °F 93.8 °F 70.0 °F 53% 30.10 in 10.0 mi WSW 8.1 mph - N/A   Clear
3:15 PM 88.7 °F 93.9 °F 70.3 °F 54% 30.10 in 10.0 mi West 12.7 mph 19.6 mph N/A   Scattered Clouds
3:35 PM 89.1 °F 94.1 °F 70.2 °F 53% 30.10 in 10.0 mi WSW 12.7 mph 19.6 mph N/A   Scattered Clouds
3:55 PM 85.6 °F 90.4 °F 70.3 °F 60% 30.10 in 10.0 mi West 13.8 mph - N/A   Mostly Cloudy
4:15 PM 87.3 °F 93.6 °F 71.6 °F 60% 30.10 in 10.0 mi West 11.5 mph - N/A   Scattered Clouds
4:35 PM 87.6 °F 92.7 °F 70.3 °F 56% 30.09 in 10.0 mi WSW 10.4 mph - N/A   Clear
4:55 PM 86.2 °F 90.4 °F 69.4 °F 57% 30.09 in 10.0 mi West 13.8 mph 17.3 mph N/A   Scattered Clouds
5:15 PM 85.5 °F 89.8 °F 69.8 °F 59% 30.10 in 10.0 mi West 9.2 mph - N/A   Mostly Cloudy
5:35 PM 86.5 °F 89.3 °F 67.3 °F 52% 30.10 in 10.0 mi West 13.8 mph 17.3 mph N/A   Scattered Clouds
5:55 PM 85.5 °F 87.1 °F 65.1 °F 50% 30.10 in 10.0 mi West 15.0 mph 18.4 mph N/A   Clear
6:15 PM 85.5 °F 85.9 °F 61.9 °F 45% 30.10 in 10.0 mi West 11.5 mph - N/A   Clear
6:35 PM 84.9 °F 85.2 °F 61.5 °F 45% 30.10 in 10.0 mi West 9.2 mph 16.1 mph N/A   Clear
6:55 PM 84.2 °F 84.0 °F 59.2 °F 43% 30.10 in 10.0 mi West 8.1 mph - N/A   Clear
7:15 PM 82.4 °F 82.7 °F 60.3 °F 47% 30.10 in 10.0 mi West 8.1 mph - N/A   Clear
7:35 PM 80.8 °F 81.2 °F 59.0 °F 47% 30.10 in 10.0 mi West 6.9 mph - N/A   Clear
7:55 PM 78.6 °F - 59.5 °F 52% 30.11 in 10.0 mi WNW 4.6 mph - N/A   Clear
8:15 PM 77.5 °F - 58.8 °F 52% 30.12 in 10.0 mi WNW 5.8 mph - N/A   Clear
8:30 PM 76.6 °F - 58.5 °F 53% 30.12 in 10.0 mi WNW 8.1 mph - N/A   Clear
8:55 PM 75.4 °F - 58.5 °F 56% 30.13 in 10.0 mi West 5.8 mph - N/A   Clear
9:15 PM 73.6 °F - 59.2 °F 61% 30.14 in 10.0 mi WNW 5.8 mph - N/A   Clear
9:30 PM 73.4 °F - 59.0 °F 61% 30.14 in 10.0 mi West 5.8 mph - N/A   Clear
9:55 PM 71.6 °F - 59.5 °F 66% 30.15 in 10.0 mi West 4.6 mph - N/A   Clear
10:15 PM 68.7 °F - 59.9 °F 73% 30.16 in 10.0 mi West 4.6 mph - N/A   Clear
10:30 PM 68.4 °F - 59.9 °F 74% 30.16 in 10.0 mi WNW 5.8 mph - N/A   Clear
10:55 PM 69.8 °F - 60.1 °F 71% 30.17 in 10.0 mi WNW 5.8 mph - N/A   Clear
11:10 PM 69.8 °F - 59.9 °F 71% 30.18 in 10.0 mi WNW 6.9 mph - N/A   Clear
11:35 PM 66.4 °F - 59.7 °F 79% 30.18 in 10.0 mi NW 5.8 mph - N/A   Clear
11:50 PM 66.4 °F - 59.5 °F 79% 30.19 in 10.0 mi Calm Calm - N/A   Clear